Satellite: MET-2/21
Catalog number: 22782
Epoch time: 08066.45042598
Element set: 81
Inclination: 082.5490 deg
RA of node: 193.0581 deg
Eccentricity: 0.0021753
Arg of perigee: 214.9516 deg
Mean anomaly: 145.0223 deg
Mean motion: 13.83626538 rev/day
Decay rate: 1.3e-07 rev/day^2
Epoch rev: 73292
Checksum: 293
Satellite: OKEAN-4
Catalog number: 23317
Epoch time: 08065.99877523
Element set: 524
Inclination: 082.5364 deg
RA of node: 051.3446 deg
Eccentricity: 0.0023975
Arg of perigee: 105.7711 deg
Mean anomaly: 254.6186 deg
Mean motion: 14.82584019 rev/day
Decay rate: 2.20e-06 rev/day^2
Epoch rev: 72299
Checksum: 316
Satellite: NOAA-14
Catalog number: 23455
Epoch time: 08066.50136265
Element set: 50
Inclination: 098.9561 deg
RA of node: 138.6526 deg
Eccentricity: 0.0010339
Arg of perigee: 077.2334 deg
Mean anomaly: 282.9993 deg
Mean motion: 14.13734931 rev/day
Decay rate: -2.61e-06 rev/day^2
Epoch rev: 67984
Checksum: 320
Satellite: SICH-1
Catalog number: 23657
Epoch time: 08065.95054299
Element set: 322
Inclination: 082.5286 deg
RA of node: 192.3484 deg
Eccentricity: 0.0025664
Arg of perigee: 098.6773 deg
Mean anomaly: 261.7337 deg
Mean motion: 14.81557168 rev/day
Decay rate: 2.23e-06 rev/day^2
Epoch rev: 67493
Checksum: 339
Satellite: NOAA-15
Catalog number: 25338
Epoch time: 08066.39991599
Element set: 377
Inclination: 098.5506 deg
RA of node: 060.8959 deg
Eccentricity: 0.0010369
Arg of perigee: 347.3702 deg
Mean anomaly: 012.7230 deg
Mean motion: 14.24688697 rev/day
Decay rate: -4.4e-07 rev/day^2
Epoch rev: 51016
Checksum: 336
Satellite: RESURS
Catalog number: 25394
Epoch time: 08066.53365183
Element set: 872
Inclination: 098.4031 deg
RA of node: 115.1061 deg
Eccentricity: 0.0001944
Arg of perigee: 112.3827 deg
Mean anomaly: 247.7561 deg
Mean motion: 14.24153980 rev/day
Decay rate: -1.5e-07 rev/day^2
Epoch rev: 50183
Checksum: 279
Satellite: FENGYUN1
Catalog number: 25730
Epoch time: 08065.92455652
Element set: 355
Inclination: 098.7179 deg
RA of node: 045.2236 deg
Eccentricity: 0.0022064
Arg of perigee: 100.9099 deg
Mean anomaly: 259.4557 deg
Mean motion: 14.07706645 rev/day
Decay rate: 5.43e-06 rev/day^2
Epoch rev: 45443
Checksum: 311
Satellite: OKEAN-0
Catalog number: 25860
Epoch time: 08066.03500538
Element set: 306
Inclination: 097.7451 deg
RA of node: 061.1766 deg
Eccentricity: 0.0000543
Arg of perigee: 078.0889 deg
Mean anomaly: 282.0383 deg
Mean motion: 14.73506038 rev/day
Decay rate: 6.9e-07 rev/day^2
Epoch rev: 46420
Checksum: 291
Satellite: NOAA-16
Catalog number: 26536
Epoch time: 08066.35234872
Element set: 837
Inclination: 099.1505 deg
RA of node: 053.3087 deg
Eccentricity: 0.0010896
Arg of perigee: 150.5279 deg
Mean anomaly: 209.6506 deg
Mean motion: 14.12472383 rev/day
Decay rate: 8.9e-07 rev/day^2
Epoch rev: 38425
Checksum: 322
Satellite: NOAA-17
Catalog number: 27453
Epoch time: 08066.46369232
Element set: 834
Inclination: 098.5457 deg
RA of node: 134.0204 deg
Eccentricity: 0.0012460
Arg of perigee: 051.3980 deg
Mean anomaly: 308.8309 deg
Mean motion: 14.23953621 rev/day
Decay rate: -6.3e-07 rev/day^2
Epoch rev: 29618
Checksum: 304
Satellite: NOAA-18
Catalog number: 28654
Epoch time: 08066.45576498
Element set: 342
Inclination: 098.8591 deg
RA of node: 008.6982 deg
Eccentricity: 0.0013522
Arg of perigee: 243.2556 deg
Mean anomaly: 116.7212 deg
Mean motion: 14.11144136 rev/day
Decay rate: 3.64e-06 rev/day^2
Epoch rev: 14398
Checksum: 318
/EX
SB KEPS @ AMSAT $ORB08066.M
Orbital Elements 08066.MISC
HR AMSAT ORBITAL ELEMENTS FOR MANNED AND MISCELLANEOUS SATELLITES
FROM WA5QGD FORT WORTH,TX March 6, 2008
Send Subscribe/unsubscribe to KEPS at
http://www.amsat.org/mailman/listinfo/keps
BID: ORB08066.M
TO ALL RADIO AMATEURS BT
Satellite: HUBBLE
Catalog number: 20580
Epoch time: 08066.90373099
Element set: 87
Inclination: 028.4687 deg
RA of node: 270.3312 deg
Eccentricity: 0.0003352
Arg of perigee: 018.6375 deg
Mean anomaly: 341.4336 deg
Mean motion: 15.00345764 rev/day
Decay rate: 4.05e-06 rev/day^2
Epoch rev: 77960
Checksum: 292
Satellite: UARS
Catalog number: 21701
Epoch time: 08066.57891645
Element set: 307
Inclination: 056.9756 deg
RA of node: 248.8242 deg
Eccentricity: 0.0084228
Arg of perigee: 346.1940 deg
Mean anomaly: 013.6813 deg
Mean motion: 15.50781442 rev/day
Decay rate: 3.334e-05 rev/day^2
Epoch rev: 90657
Checksum: 312
Satellite: PO-34
Catalog number: 25520
Epoch time: 08065.59217660
Element set: 945
Inclination: 028.4592 deg
RA of node: 152.3157 deg
Eccentricity: 0.0005907
Arg of perigee: 231.4714 deg
Mean anomaly: 128.5353 deg
Mean motion: 15.17143586 rev/day
Decay rate: 4.76e-06 rev/day^2
Epoch rev: 51741
Checksum: 304
Satellite: ISS
Catalog number: 25544
Epoch time: 08066.86732796
Element set: 59
Inclination: 051.6381 deg
RA of node: 183.8128 deg
Eccentricity: 0.0001881
Arg of perigee: 208.1489 deg
Mean anomaly: 246.9070 deg
Mean motion: 15.75998980 rev/day
Decay rate: 1.9441e-04 rev/day^2
Epoch rev: 53238
Checksum: 343
Satellite: OO-38
Catalog number: 26063
Epoch time: 08066.08965000
Element set: 152
Inclination: 100.2038 deg
RA of node: 122.0386 deg
Eccentricity: 0.0037162
Arg of perigee: 139.6221 deg
Mean anomaly: 220.7736 deg
Mean motion: 14.35828752 rev/day
Decay rate: -2.7e-07 rev/day^2
Epoch rev: 42477
Checksum: 280
Satellite: UWE-1
Catalog number: 28892
Epoch time: 08066.25629701
Element set: 992
Inclination: 098.1085 deg
RA of node: 322.2954 deg
Eccentricity: 0.0017928
Arg of perigee: 014.3359 deg
Mean anomaly: 345.8334 deg
Mean motion: 14.59599140 rev/day
Decay rate: 4.7e-07 rev/day^2
Epoch rev: 12558
Checksum: 332
Satellite: CO-58
Catalog number: 28895
Epoch time: 08066.36420256
Element set: 964
Inclination: 098.1112 deg
RA of node: 322.7169 deg
Eccentricity: 0.0018344
Arg of perigee: 014.1332 deg
Mean anomaly: 346.0367 deg
Mean motion: 14.59642327 rev/day
Decay rate: 2.79e-06 rev/day^2
Epoch rev: 12548
Checksum: 318
Satellite: NCUBE2
Catalog number: 28897
Epoch time: 08066.61483709
Element set: 495
Inclination: 098.1073 deg
RA of node: 322.8967 deg
Eccentricity: 0.0017974
Arg of perigee: 013.9890 deg
Mean anomaly: 346.1809 deg
Mean motion: 14.59810211 rev/day
Decay rate: 1.41e-06 rev/day^2
Epoch rev: 11780
Checksum: 330
Satellite: FCAL
Catalog number: 29667
Epoch time: 08066.64199730
Element set: 808
Inclination: 051.6316 deg
RA of node: 140.0547 deg
Eccentricity: 0.0008126
Arg of perigee: 320.7714 deg
Mean anomaly: 039.2735 deg
Mean motion: 16.04104508 rev/day
Decay rate: 5.7174e-04 rev/day^2
Epoch rev: 7003
Checksum: 288
Satellite: FALCON
Catalog number: 30776
Epoch time: 08066.21019218
Element set: 262
Inclination: 035.4328 deg
RA of node: 057.9878 deg
Eccentricity: 0.0000868
Arg of perigee: 232.7718 deg
Mean anomaly: 127.2919 deg
Mean motion: 15.02900780 rev/day
Decay rate: 6.14e-06 rev/day^2
Epoch rev: 5464
Checksum: 300
Satellite: MAST
Catalog number: 31126
Epoch time: 08066.18142731
Element set: 271
Inclination: 098.0491 deg
RA of node: 134.6834 deg
Eccentricity: 0.0093789
Arg of perigee: 291.5023 deg
Mean anomaly: 067.6210 deg
Mean motion: 14.53403202 rev/day
Decay rate: 7.0e-08 rev/day^2
Epoch rev: 4705
Checksum: 268
Satellite: CAPE1
Catalog number: 31130
Epoch time: 08066.16633989
Element set: 251
Inclination: 098.0513 deg
RA of node: 133.9155 deg
Eccentricity: 0.0101641
Arg of perigee: 293.5156 deg
Mean anomaly: 065.5399 deg
Mean motion: 14.51935940 rev/day
Decay rate: -4.7e-07 rev/day^2
Epoch rev: 4677
Checksum: 303
/EX
More information about the Keps
mailing list